THORAD AGENA D DEB

Satellite information

Favourite Embed

Satellite Type and Status

DEBRISIN ORBIT

Key statistics

Satellite THORAD AGENA D DEB at a glance.

Uptime

20529

Days in orbit

Revolutions

≈ 14.3

Per day

Orbit

LEO

Low Earth Orbit

Inclination

70.0

Latest

Satellite identification and parameters

Extended collection of information and parameters for THORAD AGENA D DEB.

Object identification

Identified? True

Debris? True

Object name: THORAD AGENA D DEB

International designator: 1969-082AY

Object number (NORAD): 4180

Object ID (CCSDS): 4180

Country: UNITED STATES OF AMERICA (US)

Current information (Y/N): Y

RCS size: SMALL

Orbital parameters

Period: 100.353 minutes

Inclination: 69.9795 deg

SMA: 7153.403 km

Apoapsis: 825.788 km

Periapsis: 724.747 km

RAAN: 5.4229 deg

Eccentricy: 0.00706242

Argument of periapsis: 138.6319 deg

Mean anomaly: 222.0186 deg

Mean motion: 14.34939997 rev/day

Mean motion (dot): 0.00000688 rev/day2

B* drag term: 0.000254933 1/REarth

Two-line elements (TLE)

Creation date: Dec. 12, 2025, 10:14 a.m.

Reference frame: TEME

Reference center: EARTH

Epoch: Dec. 12, 2025, 3:01 a.m. UTC

TLE line 0: 0 THORAD AGENA D DEB

TLE line 1: 1 04180U 69082AY 25346.12622019 .00000688 00000-0 25493-3 0 9999

TLE line 2: 2 04180 69.9795 5.4229 0070624 138.6319 222.0186 14.34939997920956

Live tracking on map

Real-time ground track for satellite THORAD AGENA D DEB.

In-orbit conjunctions

A list of the most updated potential collisions computed for object THORAD AGENA D DEB.

Target Orbit TCA Probability of collision Miss distance Type
CZ-6A DEB LEO 2025-10-14 08:25:01 0.0001049228 154.0 (m) DEBRIS
DMSP 5D-2 F13 DEB SSO 2024-11-14 10:22:22 0.000134637 225.0 (m) DEBRIS

Associated space launch

Poppy was the follow-on ELINT system, which succeeded the Grab ELINT satellite system.

THORAD AGENA D DEB was lifted into orbit during the mission ‘Thorad SLV-2G Agena D | Poppy 8A,B,C,D’, on board a Thorad SLV-2G Agena D space rocket.

The launch took place on Sept. 30, 1969, 1:40 p.m. from Space Launch Complex 1W.

For more information about the launch, click the button.

Launch to space Thorad SLV-2G Agena D | Poppy 8A,B,C,D
Thorad SLV-2G Agena D | Poppy 8A,B,C,D

Agency: N/A

Status: Launch Successful

Launch date: Sept. 30, 1969, 1:40 p.m. UTC

Rocket: Thorad SLV-2G Agena D

Launch pad: Space Launch Complex 1W

Location: Vandenberg SFB, CA, USA

...

Latest news about this satellite

There are no fresh news available about this satellite. Check back as we update our databases every day.


Newsletter sign-up

Weekly statistics, charts and insights to help you stay on top of the space industry.